Weather History for KGEV - January, 2011

Change the Weather History Date:

Friday, January 7, 2011

  Actual Average Record
Temperature  
Mean Temperature 28 °F -  
Max Temperature 32 °F 43 °F 64 °F (2008)
Min Temperature 24 °F 25 °F -6 °F (2014)
Degree Days  
Heating Degree Days 37    
Moisture  
Dew Point 23 °F    
Average Humidity 76    
Maximum Humidity 100    
Minimum Humidity 64    
Precipitation  
Precipitation 0.02 in - - ()
Sea Level Pressure  
Sea Level Pressure 29.34 in    
Wind  
Wind Speed 20 mph (West)    
Max Wind Speed 39 mph    
Max Gust Speed 54 mph    
Visibility 5 miles    
Events Snow    
Averages and records for this station are not official NWS values.
T = Trace of Precipitation, MM = Missing Value Source: NWS Daily Summary

Daily Weather History Graph

Daily Weather History Graph

Search for Another Location

Airport or City:

Trip Planner

Search our weather history database for the weather conditions in past years. The results will help you decide how hot, cold, wet, or windy it might be!

Date:

Astronomy

Jan. 07, 2011 Rise Set
Actual Time 7:37 AM EST 5:26 PM EST
Civil Twilight 7:09 AM EST 5:54 PM EST
Nautical Twilight 6:37 AM EST 6:26 PM EST
Astronomical Twilight 6:06 AM EST 6:57 PM EST
Moon 9:26 AM EST (1/7) 8:53 PM EST (1/7)
Length of Visible Light 10h 45m
Length of Day
9h 48m
Waxing Crescent, 11% of the Moon is Illuminated
Jan 7
Waxing Crescent
Jan 12
First Quarter
Jan 19
Full
Jan 26
Last Quarter
Feb 2
New

Hourly Weather History & Observations

Time (EST) Temp. Windchill Dew Point Humidity Pressure Visibility Wind Dir Wind Speed Gust Speed Precip Events Conditions
12:02 AM 30.2 °F 17.4 °F 23.0 °F 75% 29.45 in 5.0 mi West 20.7 mph 27.6 mph N/A Snow Light Snow
12:22 AM 30.2 °F 18.1 °F 23.0 °F 75% 29.45 in 4.0 mi West 18.4 mph 32.2 mph N/A Snow Light Snow
12:42 AM 30.2 °F 16.8 °F 23.0 °F 75% 29.43 in 4.0 mi West 23.0 mph 32.2 mph N/A Snow Light Snow
1:02 AM 28.4 °F 15.4 °F 23.0 °F 80% 29.42 in 4.0 mi West 19.6 mph 26.5 mph N/A Snow Light Snow
1:22 AM 28.4 °F 15.8 °F 23.0 °F 80% 29.42 in 3.0 mi West 18.4 mph 26.5 mph N/A Snow Light Snow
1:42 AM 28.4 °F 16.6 °F 23.0 °F 80% 29.42 in 3.0 mi West 16.1 mph 33.4 mph N/A Snow Light Snow
2:03 AM 28.4 °F 15.1 °F 23.0 °F 80% 29.41 in 1.8 mi West 20.7 mph 36.8 mph N/A Snow Light Snow
2:22 AM 28.4 °F 13.0 °F 21.2 °F 74% 29.39 in 2.5 mi West 28.8 mph 40.3 mph N/A Snow Light Snow
2:42 AM 28.4 °F 14.4 °F 23.0 °F 80% 29.39 in 1.2 mi West 23.0 mph 36.8 mph N/A Snow Light Snow
3:03 AM 28.4 °F 11.8 °F 21.2 °F 74% 29.40 in 1.2 mi West 34.5 mph 49.5 mph N/A Snow Light Snow
3:22 AM 28.4 °F 12.0 °F 19.4 °F 69% 29.39 in 4.0 mi West 33.4 mph 48.3 mph N/A Snow Light Snow
3:42 AM 26.6 °F 12.7 °F 19.4 °F 74% 29.40 in 4.0 mi WNW 20.7 mph 36.8 mph N/A Snow Light Snow
4:02 AM 26.6 °F 12.7 °F 19.4 °F 74% 29.40 in 3.0 mi WNW 20.7 mph 35.7 mph N/A Snow Light Snow
4:22 AM 26.6 °F 12.4 °F 19.4 °F 74% 29.39 in 1.8 mi WNW 21.9 mph 34.5 mph N/A Snow Light Snow
4:42 AM 26.6 °F 12.0 °F 19.4 °F 74% 29.37 in 3.0 mi WNW 23.0 mph 42.6 mph N/A Snow Light Snow
5:22 AM 26.6 °F 9.8 °F 19.4 °F 74% 29.35 in 5.0 mi WNW 32.2 mph 51.8 mph N/A Snow Light Snow
5:42 AM 26.6 °F 8.5 °F 17.6 °F 69% 29.35 in 10.0 mi WNW 39.1 mph 54.1 mph N/A   Scattered Clouds
6:02 AM 26.6 °F 9.8 °F 19.4 °F 74% 29.35 in 2.5 mi WNW 32.2 mph 43.7 mph N/A Snow Light Snow
6:22 AM 24.8 °F 7.6 °F 19.4 °F 80% 29.34 in 2.0 mi WNW 31.1 mph 46.0 mph N/A Snow Light Snow
6:42 AM 26.6 °F 9.3 °F 17.6 °F 69% 29.33 in 4.0 mi West 34.5 mph 51.8 mph N/A Snow Light Snow
7:02 AM 26.6 °F 8.9 °F 19.4 °F 74% 29.32 in 2.5 mi WNW 36.8 mph 48.3 mph N/A Snow Light Snow
7:22 AM 26.6 °F 9.8 °F 19.4 °F 74% 29.33 in 10.0 mi WNW 32.2 mph 42.6 mph N/A   Scattered Clouds
7:42 AM 26.6 °F 10.8 °F 19.4 °F 74% 29.35 in 5.0 mi West 27.6 mph 42.6 mph N/A   Haze
8:02 AM 26.6 °F 11.1 °F 19.4 °F 74% 29.35 in 3.0 mi West 26.5 mph 38.0 mph N/A Snow Light Snow
8:22 AM 26.6 °F 11.4 °F 21.2 °F 80% 29.36 in 3.0 mi West 25.3 mph 36.8 mph N/A Snow Light Snow
8:42 AM 26.6 °F 12.7 °F 21.2 °F 80% 29.36 in 2.5 mi West 20.7 mph 33.4 mph N/A Snow Light Snow
9:02 AM 28.4 °F 17.0 °F 21.2 °F 74% 29.37 in 5.0 mi West 15.0 mph 28.8 mph N/A Snow Light Snow
9:22 AM 28.4 °F 19.7 °F 21.2 °F 74% 29.37 in 10.0 mi WSW 9.2 mph - N/A   Scattered Clouds
9:42 AM 30.2 °F 17.8 °F 19.4 °F 64% 29.36 in 10.0 mi West 19.6 mph 28.8 mph N/A   Scattered Clouds
10:02 AM 30.2 °F 18.5 °F 21.2 °F 69% 29.36 in 7.0 mi West 17.3 mph 25.3 mph N/A Snow Light Snow
10:22 AM 30.2 °F 19.3 °F 23.0 °F 75% 29.37 in 4.0 mi West 15.0 mph 28.8 mph N/A Snow Light Snow
10:42 AM 30.2 °F 19.8 °F 23.0 °F 75% 29.36 in 7.0 mi West 13.8 mph 19.6 mph N/A Snow Light Snow
11:02 AM 32.0 °F 22.5 °F 21.2 °F 64% 29.34 in 10.0 mi West 12.7 mph 26.5 mph N/A   Scattered Clouds
11:22 AM 32.0 °F 18.9 °F 21.2 °F 64% 29.33 in 10.0 mi West 24.2 mph 31.1 mph N/A   Scattered Clouds
11:42 AM 32.0 °F 19.5 °F 23.0 °F 69% 29.32 in 5.0 mi West 21.9 mph 31.1 mph N/A Snow Light Snow
12:02 PM 32.0 °F 20.1 °F 24.8 °F 75% 29.32 in 3.0 mi West 19.6 mph 35.7 mph N/A Snow Light Snow
12:22 PM 32.0 °F 21.2 °F 24.8 °F 75% 29.31 in 4.0 mi West 16.1 mph 23.0 mph N/A Snow Light Snow
12:43 PM 32.0 °F 23.0 °F 24.8 °F 75% 29.29 in 5.0 mi West 11.5 mph 16.1 mph N/A Snow Light Snow
1:02 PM 32.0 °F 21.6 °F 23.0 °F 69% 29.28 in 10.0 mi West 15.0 mph 21.9 mph N/A   Mostly Cloudy
1:22 PM 32.0 °F 23.0 °F 23.0 °F 69% 29.27 in 10.0 mi West 11.5 mph 23.0 mph N/A   Scattered Clouds
1:42 PM 32.0 °F 21.6 °F 23.0 °F 69% 29.27 in 10.0 mi West 15.0 mph 23.0 mph N/A   Scattered Clouds
2:02 PM 32.0 °F 22.1 °F 23.0 °F 69% 29.27 in 7.0 mi West 13.8 mph 23.0 mph N/A Snow Light Snow
2:22 PM 32.0 °F 21.6 °F 23.0 °F 69% 29.26 in 10.0 mi West 15.0 mph 21.9 mph N/A   Clear
2:42 PM 32.0 °F 21.6 °F 23.0 °F 69% 29.26 in 5.0 mi West 15.0 mph 26.5 mph N/A Snow Light Snow
3:02 PM 32.0 °F 21.6 °F 24.8 °F 75% 29.27 in 4.0 mi West 15.0 mph 23.0 mph N/A Snow Light Snow
3:22 PM 32.0 °F 24.8 °F 24.8 °F 75% 29.27 in 7.0 mi WSW 8.1 mph 17.3 mph N/A   Mostly Cloudy
3:42 PM 32.0 °F 23.6 °F 24.8 °F 75% 29.27 in 7.0 mi West 10.4 mph 17.3 mph N/A Snow Light Snow
4:02 PM 32.0 °F 23.6 °F 24.8 °F 75% 29.27 in 7.0 mi West 10.4 mph - N/A Snow Light Snow
4:22 PM 32.0 °F 24.8 °F 24.8 °F 75% 29.27 in 5.0 mi West 8.1 mph - N/A Snow Light Snow
4:42 PM 30.2 °F 23.4 °F 26.6 °F 86% 29.28 in 1.5 mi West 6.9 mph - N/A Snow Light Snow
5:02 PM 30.2 °F - 26.6 °F 86% 29.29 in 1.2 mi Calm Calm - N/A Snow Light Snow
5:43 PM 30.2 °F - 28.4 °F 93% 29.29 in 1.8 mi Calm Calm - N/A Snow Light Snow
6:02 PM 28.4 °F - 28.4 °F 100% 29.30 in 1.5 mi Calm Calm - N/A Snow Light Snow
6:24 PM 30.2 °F - 28.4 °F 93% 29.30 in 1.2 mi Calm Calm - 0.01 in Snow Light Snow
6:42 PM 30.2 °F - 28.4 °F 93% 29.30 in 1.2 mi Calm Calm - 0.02 in Snow Snow
7:02 PM 30.2 °F - 28.4 °F 93% 29.31 in 2.0 mi Calm Calm - N/A Snow Light Snow
7:22 PM 30.2 °F 21.3 °F 28.4 °F 93% 29.30 in 4.0 mi West 10.4 mph - N/A Snow Light Snow
7:42 PM 30.2 °F 20.2 °F 26.6 °F 86% 29.31 in 1.5 mi West 12.7 mph 20.7 mph N/A Snow Light Snow
8:02 PM 30.2 °F 19.8 °F 28.4 °F 93% 29.32 in 1.0 mi West 13.8 mph 18.4 mph 0.01 in Snow Light Snow
8:24 PM 28.4 °F 17.0 °F 24.8 °F 86% 29.33 in 0.8 mi NW 15.0 mph 27.6 mph 0.01 in Snow Snow
8:42 PM 28.4 °F 22.2 °F 23.0 °F 80% 29.34 in 3.0 mi WNW 5.8 mph 21.9 mph 0.01 in Snow Light Snow
9:02 PM 28.4 °F 19.1 °F 23.0 °F 80% 29.34 in 3.0 mi WNW 10.4 mph 27.6 mph N/A Snow Light Snow
9:23 PM 28.4 °F 19.7 °F 23.0 °F 80% 29.34 in 3.0 mi WNW 9.2 mph 16.1 mph N/A Snow Light Snow
9:44 PM 26.6 °F 18.2 °F 21.2 °F 80% 29.34 in 7.0 mi NW 8.1 mph 16.1 mph N/A Snow Light Snow
10:02 PM 26.6 °F 19.1 °F 21.2 °F 80% 29.35 in 3.0 mi NW 6.9 mph - N/A Snow Light Snow
10:22 PM 26.6 °F 16.2 °F 21.2 °F 80% 29.34 in 4.0 mi WNW 11.5 mph 21.9 mph N/A Snow Light Snow
10:42 PM 26.6 °F 16.8 °F 21.2 °F 80% 29.34 in 7.0 mi West 10.4 mph 16.1 mph N/A Snow Light Snow
11:02 PM 26.6 °F 15.2 °F 21.2 °F 80% 29.33 in 7.0 mi West 13.8 mph 21.9 mph N/A   Overcast
11:22 PM 26.6 °F 12.7 °F 21.2 °F 80% 29.32 in 10.0 mi WNW 20.7 mph 24.2 mph N/A   Overcast
11:42 PM 26.6 °F 13.8 °F 19.4 °F 74% 29.32 in 7.0 mi West 17.3 mph 25.3 mph N/A   Overcast